Location: Keppel Henge
(44.7900°N, 80.9447°W)
Time: 08:45:52
(UTC-04:00)

Vanguard 2 - All Passes

Search period start: 20 October 2017 00:00
Search period end: 30 October 2017 00:00
Orbit: 554 x 2939 km, 32.9° (Epoch: 19 October)

Date Brightness Start Highest point End Pass type
(mag) Time Alt. Az. Time Alt. Az. Time Alt. Az.
20 Oct - 06:47:43 10° S 06:55:42 15° SE 07:02:36 10° ESE visible
20 Oct - 08:53:13 10° SW 09:05:40 31° SSE 09:14:26 10° ESE daylight
20 Oct - 11:03:46 10° WSW 11:15:15 40° S 11:22:31 10° ESE daylight
20 Oct - 13:15:45 10° WSW 13:23:42 30° SSW 13:29:01 10° SE daylight
21 Oct - 07:02:48 10° S 07:13:38 21° SSE 07:22:27 10° ESE visible
21 Oct - 09:10:28 10° SW 09:23:42 36° SSE 09:32:44 10° ESE daylight
21 Oct - 11:21:45 10° WSW 11:33:14 41° S 11:40:27 10° ESE daylight
21 Oct - 13:34:07 10° WSW 13:41:26 26° SSW 13:46:30 10° SSE daylight
22 Oct - 07:18:54 10° SSW 07:31:35 27° SSE 07:41:30 10° ESE visible
22 Oct - 09:28:00 10° SW 09:41:45 41° S 09:50:53 10° ESE daylight
22 Oct - 11:39:51 10° WSW 11:51:11 40° S 11:58:18 10° ESE daylight
22 Oct - 13:52:41 10° WSW 13:59:05 21° SSW 14:03:44 10° SSE daylight
23 Oct - 05:31:37 10° SSE 05:39:26 15° SE 05:46:35 10° ESE visible
23 Oct - 07:35:35 10° SSW 07:49:32 32° SSE 08:00:07 10° E daylight
23 Oct - 09:45:45 10° WSW 09:59:47 44° S 10:08:57 10° ESE daylight
23 Oct - 11:58:03 10° WSW 12:09:04 38° SSW 12:16:04 10° SE daylight
23 Oct - 14:11:35 10° WSW 14:16:37 16° SW 14:20:33 10° S daylight
24 Oct - 05:46:12 10° S 05:57:13 20° SE 06:06:57 10° ESE visible
24 Oct - 07:52:41 10° SW 08:07:32 38° SSE 08:18:29 10° E daylight
24 Oct - 10:03:40 10° WSW 10:17:49 46° S 10:26:56 10° ESE daylight
24 Oct - 12:16:20 10° W 12:26:52 35° SSW 12:33:41 10° SE daylight
24 Oct - 14:31:25 10° WSW 14:34:03 12° SW 14:36:22 10° SSW daylight
25 Oct - 06:02:00 10° SSW 06:15:01 26° SSE 06:26:14 10° E visible
25 Oct - 08:10:05 10° SW 08:25:32 43° SSE 08:36:43 10° E daylight
25 Oct - 10:21:43 10° WSW 10:35:48 47° S 10:44:51 10° ESE daylight
25 Oct - 12:34:45 10° W 12:44:34 30° SSW 12:51:08 10° SSE daylight
26 Oct - 04:17:02 10° SSE 04:22:58 12° SE 04:28:45 10° ESE visible
26 Oct - 06:18:28 10° SSW 06:32:51 32° SSE 06:45:01 10° E visible
26 Oct - 08:27:44 10° WSW 08:43:34 47° S 08:54:50 10° ESE daylight
26 Oct - 10:39:53 10° WSW 10:53:45 45° SSW 11:02:41 10° ESE daylight
26 Oct - 12:53:20 10° W 13:02:10 25° SW 13:08:20 10° SSE daylight
27 Oct - 04:30:34 10° S 04:40:34 18° SE 04:50:13 10° ESE visible
27 Oct - 06:35:23 10° SW 06:50:45 38° SSE 07:03:31 10° E visible
27 Oct - 08:45:34 10° WSW 09:01:36 50° S 09:12:52 10° ESE daylight
27 Oct - 10:58:06 10° W 11:11:37 42° SSW 11:20:23 10° SE daylight
27 Oct - 13:12:12 10° W 13:19:38 20° SW 13:25:10 10° S daylight
28 Oct - 04:45:57 10° S 04:58:12 24° SE 05:09:57 10° E visible
28 Oct - 06:52:38 10° SW 07:08:41 43° SSE 07:21:50 10° E visible
28 Oct - 09:03:33 10° WSW 09:19:38 51° S 09:30:51 10° ESE daylight
28 Oct - 11:16:26 10° W 11:29:25 38° SSW 11:37:59 10° SE daylight
28 Oct - 13:31:41 10° WSW 13:37:00 15° SW 13:41:19 10° SSW daylight
29 Oct - 05:02:09 10° SSW 05:15:54 30° SSE 05:29:00 10° E visible
29 Oct - 07:10:09 10° SW 07:26:41 47° SSE 07:40:02 10° E visible
29 Oct - 09:21:37 10° WSW 09:37:38 51° S 09:48:45 10° ESE daylight
29 Oct - 11:34:51 10° W 11:47:05 33° SSW 11:55:23 10° SSE daylight
